GW5357 Weather Reports


time (UTC)temp
C
wind
direction
speed
KPH
gust
KPH
rain 1hr
cm
rain 24hr
cm
rain mn
cm
humidity
%
barometer
mb
20260503181505 21 152 4.8 9.7 0.00 0.00 0.00 65 1014.1
20260503181005 20 149 3.2 9.7 0.00 0.00 0.00 65 1014.1
20260503180505 20 135 4.8 8.0 0.00 0.00 0.00 67 1014.2
20260503180007 20 223 3.2 11.3 0.00 0.00 0.00 68 1014.3
20260503175504 20 110 4.8 11.3 0.00 0.00 0.00 64 1014.3
20260503175004 20 178 3.2 8.0 0.00 0.00 0.00 65 1014.4
20260503174505 20 193 3.2 8.0 0.00 0.00 0.00 64 1014.4
20260503174006 20 295 1.6 6.4 0.00 0.00 0.00 65 1014.4
20260503173505 20 223 1.6 9.7 0.00 0.00 0.00 59 1014.4
20260503173006 20 199 1.6 8.0 0.00 0.00 0.00 63 1014.4
20260503172505 20 46 1.6 4.8 0.00 0.00 0.00 56 1014.5
20260503172005 20 324 3.2 4.8 0.00 0.00 0.00 59 1014.5
20260503171504 19 286 3.2 4.8 0.00 0.00 0.00 57 1014.5
20260503170505 19 20 1.6 6.4 0.00 0.00 0.00 59 1014.6
20260503151005 12 20 0.0 1.6 0.00 0.00 0.00 89 1015.1
20260503150505 12 290 0.0 1.6 0.00 0.00 0.00 91 1015.2
20260503131006 8 89 0.0 3.2 0.00 0.03 0.00 93 1014.8
20260503130504 8 327 3.2 4.8 0.00 0.03 0.00 94 1014.7
20260503110459 10 340 1.6 3.2 0.00 0.03 0.00 92 1014.7
20260503090502 10 331 1.6 1.6 0.00 0.03 0.00 91 1014.6
20260503081504 11 269 1.6 3.2 0.00 0.03 0.00 90 1014.6
20260503081004 11 296 1.6 3.2 0.00 0.03 0.00 90 1014.7
20260503080501 11 314 1.6 3.2 0.00 0.03 0.00 90 1014.7
20260503072504 11 347 1.6 3.2 0.00 0.03 0.00 89 1014.5
20260503072004 11 340 1.6 3.2 0.00 0.03 0.00 89 1014.5
20260503071504 11 1 0.0 3.2 0.00 0.03 0.00 88 1014.6
20260503071005 11 314 1.6 3.2 0.00 0.03 0.00 88 1014.7
20260503070504 11 1 1.6 3.2 0.00 0.03 0.00 89 1014.7
20260503054505 12 1 0.0 3.2 0.00 0.03 0.03 86 1014.3
20260503054005 12 1 0.0 3.2 0.00 0.03 0.03 85 1014.3
20260503053505 12 314 0.0 1.6 0.00 0.03 0.03 85 1014.4
20260503053006 12 314 0.0 1.6 0.00 0.03 0.03 85 1014.4
20260503052506 12 314 0.0 1.6 0.00 0.03 0.03 84 1014.5
20260503051505 12 1 0.0 3.2 0.00 0.03 0.03 84 1014.5
20260503051005 13 269 1.6 3.2 0.00 0.03 0.03 84 1014.6
20260503050505 13 331 1.6 1.6 0.00 0.03 0.03 84 1014.5
20260503045506 13 46 1.6 3.2 0.00 0.03 0.03 83 1014.5
20260503045005 13 1 1.6 3.2 0.00 0.03 0.03 83 1014.5
20260503044505 13 28 1.6 3.2 0.00 0.03 0.03 82 1014.5
20260503044005 13 296 0.0 1.6 0.00 0.03 0.03 82 1014.4
20260503043504 13 1 0.0 1.6 0.00 0.03 0.03 82 1014.5
20260503043006 13 178 0.0 1.6 0.00 0.03 0.03 81 1014.3
20260503042505 14 331 0.0 1.6 0.00 0.03 0.03 81 1014.3
20260503042005 14 1 0.0 1.6 0.00 0.03 0.03 81 1014.3
20260503041506 14 1 0.0 3.2 0.00 0.03 0.03 80 1014.2
20260503041005 14 340 1.6 3.2 0.00 0.03 0.03 80 1014.2
20260503040505 15 331 1.6 3.2 0.00 0.03 0.03 78 1014.1
20260503040006 15 1 1.6 1.6 0.00 0.03 0.03 78 1014.1
20260503035506 15 1 0.0 3.2 0.00 0.03 0.03 77 1014.1
20260503034505 15 46 0.0 3.2 0.00 0.03 0.03 75 1014.0
20260503034005 16 340 1.6 3.2 0.00 0.03 0.03 74 1013.9
20260503033506 16 46 0.0 1.6 0.00 0.03 0.03 74 1013.8
20260503033006 16 46 0.0 1.6 0.00 0.03 0.03 73 1013.7
20260503032505 16 1 0.0 1.6 0.00 0.03 0.03 72 1013.7
20260503032005 17 1 0.0 1.6 0.00 0.03 0.03 70 1013.7
20260503031505 17 46 0.0 3.2 0.00 0.03 0.03 69 1013.8
20260503031006 17 28 0.0 3.2 0.00 0.03 0.03 68 1013.7
20260503030505 17 269 0.0 3.2 0.00 0.03 0.03 67 1013.7
20260503030006 18 1 1.6 3.2 0.00 0.03 0.03 66 1013.8
20260503025506 18 108 0.0 1.6 0.00 0.03 0.03 65 1013.6
20260503025004 18 314 0.0 1.6 0.00 0.03 0.03 64 1013.7
20260503024505 18 223 1.6 3.2 0.00 0.03 0.03 62 1013.7
20260503024006 19 314 1.6 4.8 0.00 0.03 0.03 60 1013.6
20260503023005 20 108 1.6 3.2 0.00 0.03 0.03 60 1013.7
20260503022505 20 124 1.6 3.2 0.00 0.03 0.03 58 1013.6
20260503022005 20 1 0.0 3.2 0.00 0.03 0.03 60 1013.6
20260503021505 20 1 0.0 3.2 0.00 0.03 0.03 59 1013.6
20260503021005 20 303 1.6 3.2 0.00 0.03 0.03 59 1013.7
20260503020504 20 269 1.6 3.2 0.00 0.03 0.03 60 1013.7
20260503020007 20 206 1.6 4.8 0.00 0.03 0.03 59 1013.7
20260503015505 20 135 1.6 3.2 0.00 0.03 0.03 59 1013.8
20260503015005 20 286 1.6 6.4 0.00 0.03 0.03 59 1013.9
20260503014504 20 283 3.2 6.4 0.00 0.03 0.03 59 1013.9
20260503014005 20 145 3.2 4.8 0.00 0.03 0.03 58 1013.9
20260503013504 20 117 1.6 6.4 0.00 0.03 0.03 59 1013.9
20260503013005 20 117 1.6 6.4 0.00 0.03 0.03 59 1013.9
20260503012506 21 89 3.2 6.4 0.00 0.03 0.03 58 1014.0
20260503012005 21 283 3.2 8.0 0.00 0.03 0.03 57 1014.1
20260503011506 21 121 4.8 8.0 0.00 0.03 0.03 56 1014.1
20260503011006 21 131 3.2 6.4 0.00 0.03 0.03 56 1014.1
20260503010504 21 300 1.6 6.4 0.00 0.03 0.03 58 1014.1
20260503005503 21 131 3.2 8.0 0.00 0.03 0.03 59 1014.2
20260503005005 21 46 3.2 9.7 0.00 0.03 0.03 58 1014.2
20260503004505 21 303 4.8 9.7 0.00 0.03 0.03 57 1014.3
20260503004005 21 138 3.2 8.0 0.00 0.03 0.03 58 1014.3
20260503003504 21 63 3.2 6.4 0.00 0.03 0.03 57 1014.3
20260503003005 22 296 3.2 6.4 0.00 0.03 0.03 57 1014.3
20260503002504 22 269 3.2 6.4 0.00 0.03 0.03 59 1014.3
20260503002005 22 283 1.6 8.0 0.00 0.03 0.03 61 1014.3
20260503001504 22 186 3.2 8.0 0.00 0.03 0.03 58 1014.4
20260503001004 22 187 3.2 8.0 0.00 0.03 0.03 57 1014.4
20260503000504 22 237 4.8 8.0 0.00 0.03 0.03 57 1014.5
20260503000008 22 197 3.2 6.4 0.00 0.03 0.03 58 1014.4
20260502235504 22 241 3.2 9.7 0.00 0.03 0.03 58 1014.5
20260502235005 22 178 1.6 9.7 0.00 0.03 0.03 58 1014.4
20260502234505 22 216 4.8 11.3 0.00 0.03 0.03 59 1014.5
20260502234004 22 76 4.8 11.3 0.00 0.03 0.03 57 1014.6
20260502233505 22 1 3.2 6.4 0.00 0.03 0.03 55 1014.7
20260502233006 23 135 1.6 9.7 0.00 0.03 0.03 55 1014.7
20260502232504 23 223 3.2 11.3 0.00 0.03 0.03 51 1014.8
20260502232005 23 303 4.8 11.3 0.00 0.03 0.03 50 1014.8
20260502231505 22 223 3.2 9.7 0.00 0.03 0.03 50 1014.8
20260502231005 22 269 3.2 14.5 0.00 0.03 0.03 50 1014.8
20260502225506 22 46 4.8 8.0 0.00 0.03 0.03 58 1015.0
20260502225005 22 283 4.8 8.0 0.00 0.03 0.03 49 1015.2
20260502224505 22 241 3.2 9.7 0.00 0.03 0.03 52 1015.3
20260502223503 22 1 6.4 11.3 0.00 0.03 0.03 53 1015.3
20260502223005 22 331 4.8 11.3 0.00 0.03 0.03 53 1015.4
20260502222504 22 276 6.4 11.3 0.00 0.03 0.03 52 1015.5
20260502222005 22 296 6.4 11.3 0.00 0.03 0.03 52 1015.4
20260502221505 21 299 3.2 12.9 0.00 0.03 0.03 55 1015.6
20260502221005 21 274 4.8 16.1 0.00 0.03 0.03 56 1015.6
20260502220008 21 227 3.2 11.3 0.00 0.03 0.03 56 1015.7
20260502215505 21 269 4.8 11.3 0.00 0.03 0.03 57 1015.7
20260502215005 21 290 4.8 11.3 0.00 0.03 0.03 57 1015.9
20260502214005 22 286 4.8 11.3 0.00 0.03 0.03 55 1015.9
20260502213007 21 223 4.8 8.0 0.00 0.03 0.03 54 1016.0
20260502212505 21 319 4.8 8.0 0.00 0.03 0.03 54 1016.2
20260502212005 21 344 3.2 9.7 0.00 0.03 0.03 54 1016.2
20260502211005 21 252 3.2 12.9 0.00 0.03 0.03 55 1016.2
20260502210505 20 307 3.2 14.5 0.00 0.03 0.03 54 1016.3
20260502210005 20 277 6.4 14.5 0.00 0.03 0.03 54 1016.5
20260502205005 20 354 6.4 12.9 0.00 0.03 0.03 58 1016.5
20260502204505 20 277 4.8 12.9 0.00 0.03 0.03 61 1016.6
20260502204005 20 279 4.8 17.7 0.00 0.03 0.03 61 1016.6
20260502203504 20 301 6.4 17.7 0.00 0.03 0.03 59 1016.7
20260502202505 20 328 3.2 17.7 0.00 0.03 0.03 65 1016.6
20260502202004 20 275 8.0 17.7 0.00 0.03 0.03 62 1016.7
20260502201504 20 6 3.2 11.3 0.00 0.03 0.03 63 1016.6
20260502200505 20 35 4.8 14.5 0.00 0.03 0.03 64 1016.6
20260502200006 20 241 4.8 14.5 0.00 0.03 0.03 66 1016.7
20260502195505 20 360 4.8 11.3 0.00 0.03 0.03 66 1016.8
20260502195006 20 295 3.2 12.9 0.00 0.03 0.03 70 1016.8
20260502194504 20 241 4.8 12.9 0.00 0.03 0.03 68 1016.8
20260502193506 20 157 3.2 12.9 0.00 0.03 0.03 68 1016.8
20260502193005 19 206 4.8 12.9 0.00 0.03 0.03 69 1016.8
20260502192505 20 188 4.8 12.9 0.00 0.03 0.03 70 1016.9
20260502192005 20 223 4.8 16.1 0.00 0.03 0.03 69 1016.8
20260502191505 20 228 3.2 16.1 0.00 0.03 0.03 69 1016.8
20260502191004 20 207 4.8 12.9 0.00 0.03 0.03 68 1016.9
20260502190007 21 25 3.2 6.4 0.00 0.03 0.03 59 1016.9
20260502185504 20 223 3.2 6.4 0.00 0.03 0.03 58 1016.9
20260502185005 20 237 1.6 9.7 0.00 0.03 0.03 56 1017.0
20260502184505 20 331 1.6 9.7 0.00 0.03 0.03 57 1017.0
20260502184004 20 335 4.8 8.0 0.00 0.03 0.03 57 1017.0
20260502183505 20 1 4.8 8.0 0.00 0.03 0.03 60 1017.0
20260502183007 20 336 3.2 6.4 0.00 0.03 0.03 62 1017.0